• In Belarus
  • List of Countries
  • For 7 days
  • Water Temperature
  • Satellite Maps
  • Weather Map
  • Weather Widgets
  • user-avatar
    Login

    Hourly Weather Annaba

    Today, 22 November, Wednesday

    Time Temperature Precipitation Wind Pressure Humidity
    00:00 +14°C° 0 mm 2 mps 764 mmHg 55%
    01:00 +14°C° 0 mm 2 mps 764 mmHg 55%
    02:00 +14°C° 0 mm 2 mps 763 mmHg 53%
    03:00 +14°C° 0 mm 2 mps 763 mmHg 51%
    04:00 +14°C° 0 mm 2 mps 763 mmHg 49%
    05:00 +14°C° 0 mm 2 mps 763 mmHg 47%
    06:00 +14°C° 0 mm 2 mps 762 mmHg 45%
    07:00 +13°C° 0 mm 2 mps 763 mmHg 44%
    08:00 +15°C° 0 mm 2 mps 763 mmHg 42%
    09:00 +17°C° 0 mm 2 mps 762 mmHg 39%
    10:00 +19°C° 0 mm 2 mps 762 mmHg 37%
    11:00 +20°C° 0 mm 2 mps 762 mmHg 34%
    12:00 +21°C° 0 mm 2 mps 762 mmHg 32%
    13:00 +24°C° 0 mm 2 mps 761 mmHg 29%
    14:00 +23°C° 0 mm 2 mps 761 mmHg 33%
    15:00 +23°C° 0 mm 2 mps 761 mmHg 37%
    16:00 +21°C° 0 mm 2 mps 760 mmHg 42%
    17:00 +20°C° 0 mm 2 mps 760 mmHg 42%
    18:00 +19°C° 0 mm 2 mps 760 mmHg 43%
    19:00 +18°C° 0 mm 2 mps 760 mmHg 43%
    20:00 +18°C° 0 mm 2 mps 761 mmHg 43%
    21:00 +18°C° 0 mm 2 mps 761 mmHg 42%
    22:00 +18°C° 0 mm 2 mps 761 mmHg 42%
    23:00 +18°C° 0 mm 2 mps 761 mmHg 42%

    Tomorrow, 23 November, Thursday

    Time Temperature Precipitation Wind Pressure Humidity
    00:00 +17°C° 0 mm 2 mps 761 mmHg 41%
    01:00 +17°C° 0 mm 2 mps 761 mmHg 41%
    02:00 +17°C° 0 mm 2 mps 761 mmHg 41%
    03:00 +17°C° 0 mm 2 mps 760 mmHg 42%
    04:00 +17°C° 0 mm 2 mps 760 mmHg 42%
    05:00 +17°C° 0 mm 2 mps 760 mmHg 43%
    06:00 +16°C° 0 mm 2 mps 761 mmHg 44%
    07:00 +16°C° 0 mm 2 mps 761 mmHg 45%
    08:00 +17°C° 0 mm 2 mps 761 mmHg 44%
    09:00 +18°C° 0 mm 2 mps 762 mmHg 43%
    10:00 +19°C° 0 mm 2 mps 762 mmHg 43%
    11:00 +20°C° 0 mm 2 mps 762 mmHg 41%
    12:00 +20°C° 0 mm 2 mps 762 mmHg 39%
    13:00 +21°C° 0 mm 2 mps 762 mmHg 38%
    14:00 +21°C° 0 mm 2 mps 762 mmHg 41%
    15:00 +20°C° 0 mm 2 mps 762 mmHg 44%
    16:00 +20°C° 0 mm 3 mps 762 mmHg 47%
    17:00 +19°C° 0 mm 2 mps 762 mmHg 51%
    18:00 +18°C° 0 mm 2 mps 763 mmHg 54%
    19:00 +17°C° 0 mm 2 mps 763 mmHg 58%
    20:00 +16°C° 0 mm 2 mps 763 mmHg 59%
    21:00 +16°C° 0 mm 2 mps 764 mmHg 60%
    22:00 +15°C° 0 mm 2 mps 764 mmHg 61%
    23:00 +15°C° 0 mm 2 mps 764 mmHg 61%

    Day after tomorrow, 24 November, Friday

    Time Temperature Precipitation Wind Pressure Humidity
    00:00 +15°C° 0 mm 2 mps 764 mmHg 62%
    01:00 +14°C° 0 mm 2 mps 764 mmHg 62%
    02:00 +14°C° 0 mm 2 mps 764 mmHg 62%
    03:00 +14°C° 0 mm 2 mps 764 mmHg 62%
    04:00 +14°C° 0 mm 2 mps 764 mmHg 62%
    05:00 +13°C° 0 mm 2 mps 764 mmHg 61%
    06:00 +13°C° 0 mm 2 mps 764 mmHg 60%
    07:00 +13°C° 0 mm 2 mps 765 mmHg 59%
    08:00 +15°C° 0 mm 2 mps 765 mmHg 55%
    09:00 +16°C° 0 mm 2 mps 765 mmHg 50%
    10:00 +18°C° 0 mm 2 mps 765 mmHg 46%
    11:00 +19°C° 0 mm 2 mps 765 mmHg 43%
    12:00 +21°C° 0 mm 1 mps 765 mmHg 40%
    13:00 +22°C° 0 mm 1 mps 764 mmHg 38%
    14:00 +22°C° 0 mm 1 mps 764 mmHg 40%
    15:00 +22°C° 0 mm 1 mps 764 mmHg 42%
    16:00 +21°C° 0 mm 1 mps 764 mmHg 44%
    17:00 +20°C° 0 mm 1 mps 764 mmHg 50%
    18:00 +18°C° 0 mm 1 mps 764 mmHg 57%
    19:00 +15°C° 0 mm 1 mps 765 mmHg 64%
    20:00 +15°C° 0 mm 1 mps 765 mmHg 63%
    21:00 +15°C° 0 mm 2 mps 765 mmHg 63%
    22:00 +15°C° 0 mm 2 mps 765 mmHg 62%
    23:00 +15°C° 0 mm 2 mps 765 mmHg 60%

    25 November, Saturday

    Time Temperature Precipitation Wind Pressure Humidity
    00:00 +15°C° 0 mm 2 mps 765 mmHg 57%
    01:00 +14°C° 0 mm 2 mps 765 mmHg 55%
    02:00 +14°C° 0 mm 2 mps 765 mmHg 52%
    03:00 +14°C° 0 mm 2 mps 764 mmHg 50%
    04:00 +14°C° 0 mm 2 mps 764 mmHg 47%
    05:00 +14°C° 0 mm 2 mps 764 mmHg 45%
    06:00 +14°C° 0 mm 2 mps 764 mmHg 43%
    07:00 +14°C° 0 mm 2 mps 764 mmHg 41%
    08:00 +16°C° 0 mm 2 mps 764 mmHg 39%
    09:00 +17°C° 0 mm 2 mps 764 mmHg 36%
    10:00 +19°C° 0 mm 2 mps 765 mmHg 34%
    11:00 +21°C° 0 mm 2 mps 764 mmHg 32%
    12:00 +23°C° 0 mm 1 mps 764 mmHg 31%
    13:00 +24°C° 0 mm 1 mps 763 mmHg 29%
    14:00 +24°C° 0 mm 1 mps 763 mmHg 32%
    15:00 +24°C° 0 mm 1 mps 763 mmHg 35%
    16:00 +23°C° 0 mm 1 mps 763 mmHg 38%
    17:00 +21°C° 0 mm 1 mps 763 mmHg 40%
    18:00 +18°C° 0 mm 0 mps 763 mmHg 42%
    19:00 +16°C° 0 mm 0 mps 763 mmHg 45%
    20:00 +18°C° 0 mm 1 mps 764 mmHg 44%
    21:00 +18°C° 0 mm 1 mps 764 mmHg 44%
    22:00 +16°C° 0 mm 1 mps 765 mmHg 43%
    23:00 +16°C° 0 mm 2 mps 764 mmHg 43%

    26 November, Sunday

    Time Temperature Precipitation Wind Pressure Humidity
    00:00 +16°C° 0 mm 2 mps 764 mmHg 43%
    01:00 +16°C° 0 mm 2 mps 764 mmHg 42%
    02:00 +16°C° 0 mm 2 mps 764 mmHg 42%
    03:00 +16°C° 0 mm 2 mps 764 mmHg 41%
    04:00 +16°C° 0 mm 2 mps 764 mmHg 41%
    05:00 +15°C° 0 mm 2 mps 764 mmHg 41%
    06:00 +15°C° 0 mm 2 mps 764 mmHg 40%
    07:00 +15°C° 0 mm 2 mps 764 mmHg 40%
    08:00 +17°C° 0 mm 2 mps 764 mmHg 38%
    09:00 +19°C° 0 mm 2 mps 764 mmHg 37%
    10:00 +21°C° 0 mm 1 mps 764 mmHg 35%
    11:00 +21°C° 0 mm 2 mps 764 mmHg 34%
    12:00 +23°C° 0 mm 2 mps 764 mmHg 33%
    13:00 +24°C° 0 mm 3 mps 764 mmHg 32%
    14:00 +22°C° 0 mm 3 mps 764 mmHg 40%
    15:00 +21°C° 0 mm 4 mps 764 mmHg 49%
    16:00 +20°C° 0 mm 4 mps 764 mmHg 57%
    17:00 +19°C° 0 mm 4 mps 765 mmHg 66%
    18:00 +17°C° 0 mm 4 mps 765 mmHg 75%
    19:00 +15°C° 0 mm 4 mps 766 mmHg 83%
    20:00 +15°C° 0.2 mm 4 mps 766 mmHg 86%
    21:00 +15°C° 0.2 mm 4 mps 767 mmHg 89%
    22:00 +15°C° 0.2 mm 4 mps 767 mmHg 91%
    23:00 +14°C° 0.1 mm 5 mps 767 mmHg 90%

    27 November, Monday

    Time Temperature Precipitation Wind Pressure Humidity
    00:00 +14°C° 0.1 mm 5 mps 767 mmHg 89%
    01:00 +14°C° 0.1 mm 5 mps 767 mmHg 88%
    02:00 +14°C° 0.1 mm 5 mps 767 mmHg 87%
    03:00 +14°C° 0.1 mm 5 mps 767 mmHg 86%
    04:00 +14°C° 0.1 mm 5 mps 767 mmHg 84%
    05:00 +13°C° 0 mm 5 mps 767 mmHg 83%
    06:00 +13°C° 0 mm 5 mps 767 mmHg 81%
    07:00 +13°C° 0 mm 4 mps 767 mmHg 79%
    08:00 +13°C° 0 mm 5 mps 768 mmHg 75%
    09:00 +14°C° 0 mm 5 mps 768 mmHg 70%
    10:00 +14°C° 0 mm 5 mps 768 mmHg 66%
    11:00 +15°C° 0 mm 5 mps 768 mmHg 64%
    12:00 +15°C° 0 mm 5 mps 768 mmHg 62%
    13:00 +15°C° 0 mm 5 mps 767 mmHg 59%
    14:00 +15°C° 0 mm 5 mps 767 mmHg 59%
    15:00 +15°C° 0 mm 5 mps 767 mmHg 59%
    16:00 +14°C° 0 mm 5 mps 767 mmHg 59%
    17:00 +13°C° 0 mm 4 mps 767 mmHg 63%
    18:00 +12°C° 0 mm 3 mps 767 mmHg 68%
    19:00 +11°C° 0 mm 3 mps 767 mmHg 72%
    20:00 +11°C° 0 mm 3 mps 767 mmHg 74%
    21:00 +11°C° 0 mm 3 mps 767 mmHg 75%
    22:00 +10°C° 0 mm 3 mps 767 mmHg 77%
    23:00 +10°C° 0 mm 3 mps 767 mmHg 77%
    Show more